DW8253 Weather Reports


time (UTC)temp
C
wind
direction
speed
KPH
gust
KPH
rain 1hr
cm
rain 24hr
cm
rain mn
cm
humidity
%
barometer
mb
20260906210254 37 234 6.4 20.9 0.00 0.03 0.03 32 871.0
20260906205744 36 307 9.7 20.9 0.00 0.03 0.03 34 870.8
20260906204255 37 230 9.7 27.4 0.00 0.03 0.03 33 870.7
20260906203253 37 229 6.4 17.7 0.00 0.03 0.03 32 871.0
20260906202249 37 277 11.3 25.7 0.00 0.03 0.03 33 870.9
20260906201247 37 233 11.3 20.9 0.00 0.03 0.03 33 870.9
20260906200248 37 232 9.7 19.3 0.00 0.03 0.03 32 870.9
20260906195247 36 224 8.0 19.3 0.00 0.03 0.03 32 870.8
20260906194247 37 283 4.8 17.7 0.00 0.03 0.03 33 870.8
20260906193247 37 300 8.0 27.4 0.00 0.03 0.03 33 870.9
20260906192248 36 262 8.0 20.9 0.00 0.03 0.03 33 870.7
20260906191249 37 206 9.7 22.5 0.00 0.03 0.03 32 870.8
20260906190244 37 258 11.3 22.5 0.00 0.03 0.03 34 870.8
20260906185245 37 199 4.8 14.5 0.00 0.03 0.03 33 870.9
20260906185201 36 231 8.0 19.3 0.00 0.03 0.03 34 870.7
20260906183246 35 227 14.5 22.5 0.00 0.03 0.03 36 870.5
20260906182246 36 230 8.0 16.1 0.00 0.03 0.03 35 870.6
20260906181246 37 284 6.4 17.7 0.00 0.03 0.03 34 870.9
20260906180243 36 222 9.7 29.0 0.00 0.03 0.03 34 870.7
20260906180207 35 332 8.0 19.3 0.00 0.03 0.03 36 870.6
20260906175648 35 237 11.3 24.1 0.00 0.03 0.03 36 870.6
20260906173244 36 223 12.9 27.4 0.00 0.03 0.03 35 870.7
20260906172248 35 291 6.4 20.9 0.00 0.03 0.03 35 870.7
20260906171240 35 260 12.9 27.4 0.00 0.03 0.03 37 870.5
20260906170246 35 272 12.9 22.5 0.00 0.03 0.03 36 870.5
20260906165240 35 249 12.9 25.7 0.00 0.03 0.03 37 870.5
20260906164646 35 96 9.7 22.5 0.00 0.03 0.03 37 870.5
20260906164319 35 206 11.3 24.1 0.00 0.03 0.03 37 870.5
20260906162744 34 242 9.7 17.7 0.00 0.03 0.03 37 870.5
20260906161248 34 225 11.3 19.3 0.00 0.03 0.03 38 870.3
20260906160239 34 260 9.7 19.3 0.00 0.03 0.03 39 870.3
20260906155242 33 221 11.3 19.3 0.00 0.03 0.03 39 870.3
20260906154245 33 229 9.7 16.1 0.00 0.03 0.03 40 870.3
20260906153241 33 262 6.4 12.9 0.00 0.03 0.03 40 870.3
20260906152241 33 229 6.4 14.5 0.00 0.03 0.03 41 870.2
20260906151239 32 274 6.4 16.1 0.00 0.03 0.03 43 870.1
20260906150242 32 88 0.0 4.8 0.00 0.03 0.03 45 870.1
20260906145241 32 130 1.6 4.8 0.00 0.03 0.03 46 870.0
20260906144242 31 273 1.6 4.8 0.00 0.03 0.03 49 869.8
20260906143240 31 219 1.6 6.4 0.00 0.03 0.03 48 869.8
20260906142242 30 303 0.0 3.2 0.00 0.03 0.03 49 869.8
20260906141236 30 0 0.0 1.6 0.00 0.03 0.03 49 869.7
20260906140237 29 0 0.0 4.8 0.00 0.03 0.03 52 869.6
20260906135237 29 0 0.0 3.2 0.00 0.03 0.03 51 869.6
20260906134238 28 224 0.0 3.2 0.00 0.03 0.03 53 869.5
20260906133234 26 0 0.0 4.8 0.00 0.03 0.03 56 869.2
20260906133206 25 268 1.6 3.2 0.00 0.03 0.03 59 869.1
20260906131236 24 0 0.0 1.6 0.00 0.03 0.03 62 868.9
20260906131213 22 0 0.0 3.2 0.00 0.03 0.03 67 868.7
20260906125236 22 247 0.0 3.2 0.00 0.03 0.03 68 868.5
20260906124222 22 233 0.0 3.2 0.00 0.03 0.03 68 868.5
20260906123206 22 199 0.0 3.2 0.00 0.03 0.03 68 868.5
20260906123131 22 0 0.0 1.6 0.00 0.03 0.03 68 868.5
20260906122232 22 0 0.0 1.6 0.00 0.03 0.03 68 868.5
20260906122041 22 0 0.0 1.6 0.00 0.03 0.03 67 868.5
20260906115156 22 241 0.0 3.2 0.00 0.03 0.03 67 868.5
20260906114152 23 305 1.6 3.2 0.03 0.03 0.03 66 868.6
20260906113229 23 0 0.0 3.2 0.03 0.03 0.03 65 868.6
20260906112154 23 0 1.6 4.8 0.03 0.03 0.03 63 868.7
20260906111639 23 315 3.2 3.2 0.03 0.03 0.03 64 868.7
20260906110151 24 338 3.2 6.4 0.00 0.00 0.00 63 868.7
20260906105139 24 294 3.2 4.8 0.00 0.00 0.00 61 868.8
20260906104138 23 285 3.2 4.8 0.00 0.00 0.00 64 868.7
20260906103138 23 327 3.2 4.8 0.00 0.00 0.00 65 868.6
20260906102138 23 333 3.2 4.8 0.00 0.00 0.00 63 868.7
20260906101139 23 0 1.6 3.2 0.00 0.00 0.00 64 868.7
20260906100139 23 0 0.0 3.2 0.00 0.00 0.00 64 868.7
20260906095124 23 47 1.6 3.2 0.00 0.00 0.00 64 868.7
20260906094125 24 65 1.6 3.2 0.00 0.00 0.00 63 868.8
20260906093124 24 0 1.6 3.2 0.00 0.00 0.00 62 868.8
20260906092125 25 0 0.0 3.2 0.00 0.00 0.00 60 868.9
20260906091130 25 0 0.0 3.2 0.00 0.00 0.00 59 868.9
20260906090125 25 0 0.0 3.2 0.00 0.00 0.00 58 869.0
20260906085125 26 0 3.2 4.8 0.00 0.00 0.00 57 869.0
20260906084113 25 285 3.2 9.7 0.00 0.00 0.00 58 869.0
20260906083111 25 300 3.2 4.8 0.00 0.00 0.00 60 868.9
20260906082111 25 332 0.0 3.2 0.00 0.00 0.00 58 869.0
20260906081110 25 0 0.0 1.6 0.00 0.00 0.00 58 869.0
20260906080111 25 283 1.6 3.2 0.00 0.00 0.00 59 868.9
20260906075554 25 0 0.0 0.0 0.00 0.00 0.00 59 868.9
20260906074111 25 239 0.0 1.6 0.00 0.00 0.00 59 868.9
20260906073055 25 0 1.6 3.2 0.00 0.00 0.00 58 868.9
20260906072055 26 0 0.0 6.4 0.00 0.00 0.00 55 869.1
20260906071549 26 232 1.6 8.0 0.00 0.00 0.00 56 869.1
20260906071448 26 0 3.2 8.0 0.00 0.00 0.00 55 869.1
20260906065542 25 198 1.6 6.4 0.00 0.00 0.00 58 869.0
20260906064056 25 0 0.0 0.0 0.00 0.00 0.00 58 868.9
20260906063055 25 0 0.0 3.2 0.00 0.00 0.00 58 869.0
20260906062056 26 0 0.0 3.2 0.00 0.00 0.00 57 869.0
20260906061056 26 67 0.0 3.2 0.00 0.00 0.00 55 869.0
20260906060047 26 197 1.6 3.2 0.00 0.00 0.00 54 869.1
20260906055046 27 104 1.6 4.8 0.00 0.00 0.00 53 869.2
20260906055001 28 229 4.8 11.3 0.00 0.00 0.00 49 869.4
20260906053045 28 197 8.0 14.5 0.00 0.00 0.00 48 869.5
20260906052047 27 211 9.7 16.1 0.00 0.00 0.00 48 869.4
20260906052009 27 223 3.2 6.4 0.00 0.00 0.00 52 869.2
20260906050523 27 71 1.6 8.0 0.00 0.00 0.00 51 869.3
20260906045046 28 0 0.0 3.2 0.00 0.00 0.00 50 869.3
20260906044029 28 95 3.2 11.3 0.00 0.00 0.00 49 869.4
20260906043015 27 193 3.2 6.4 0.00 0.00 0.00 50 869.3
20260906042015 28 238 1.6 4.8 0.00 0.00 0.00 50 869.3
20260906041014 28 0 1.6 8.0 0.00 0.00 0.00 49 869.3
20260906040015 28 0 4.8 9.7 0.00 0.00 0.00 48 869.4
20260906035015 28 230 3.2 8.0 0.00 0.00 0.00 49 869.3
20260906034015 28 257 1.6 4.8 0.00 0.00 0.00 49 869.3
20260906033944 28 0 0.0 3.2 0.00 0.00 0.00 48 869.4
20260906031959 28 228 0.0 3.2 0.00 0.00 0.00 47 869.4
20260906031440 29 0 1.6 6.4 0.00 0.00 0.00 46 869.5
20260906030000 30 216 3.2 9.7 0.00 0.00 0.00 45 869.6
20260906024959 30 163 3.2 9.7 0.00 0.00 0.00 44 869.6
20260906023959 31 210 1.6 6.4 0.00 0.00 0.00 43 869.7
20260906022947 31 220 3.2 12.9 0.00 0.00 0.00 42 869.8
20260906021947 31 204 9.7 12.9 0.00 0.00 0.00 41 869.8
20260906021447 31 214 9.7 12.9 0.00 0.00 0.00 41 869.8
20260906015946 31 216 9.7 12.9 0.00 0.00 0.00 40 869.9
20260906014945 32 215 9.7 14.5 0.00 0.00 0.00 40 869.9
20260906013947 32 216 9.7 12.9 0.00 0.00 0.00 40 869.9
20260906012943 32 209 9.7 14.5 0.00 0.00 0.00 39 870.0
20260906012421 32 221 8.0 11.3 0.00 0.00 0.00 38 870.0
20260906010946 32 205 8.0 11.3 0.00 0.00 0.00 38 870.0
20260906010436 33 219 8.0 12.9 0.00 0.00 0.00 36 870.1
20260906005906 34 211 6.4 11.3 0.00 0.00 0.00 35 870.2
20260906003945 35 217 8.0 14.5 0.00 0.00 0.00 34 870.3
20260906002947 35 224 11.3 17.7 0.00 0.00 0.00 33 870.3
20260906001947 35 215 8.0 17.7 0.00 0.00 0.00 32 870.5
20260906001904 36 241 6.4 17.7 0.00 0.00 0.00 32 870.6
20260905235943 36 220 8.0 17.7 0.00 0.00 0.00 32 870.6
20260905234939 36 240 11.3 22.5 0.00 0.00 0.00 32 870.6
20260905234419 36 215 8.0 19.3 0.00 0.00 0.00 32 870.6
20260905232937 36 338 4.8 14.5 0.00 0.00 0.00 31 870.7
20260905231948 36 325 6.4 20.9 0.00 0.00 0.00 31 870.7
20260905230948 36 228 6.4 14.5 0.00 0.00 0.00 31 870.7
20260905230847 36 288 8.0 19.3 0.00 0.00 0.00 31 870.7
20260905225444 37 219 6.4 20.9 0.00 0.00 0.00 30 870.8
20260905224350 37 293 9.7 25.7 0.00 0.00 0.00 31 870.7
20260905223944 37 285 8.0 20.9 0.00 0.00 0.00 31 870.8
20260905222912 37 218 12.9 22.5 0.00 0.00 0.00 31 870.8
20260905220944 37 231 6.4 19.3 0.00 0.00 0.00 30 871.0
20260905215934 37 305 6.4 17.7 0.00 0.00 0.00 30 870.9
20260905214946 37 242 8.0 20.9 0.00 0.00 0.00 31 870.9
20260905213945 38 250 6.4 16.1 0.00 0.00 0.00 30 871.0
20260905212945 37 264 6.4 24.1 0.00 0.00 0.00 31 870.9
20260905211947 37 223 14.5 27.4 0.00 0.00 0.00 32 870.8